Weather History for Mount Ida, AR

Change the Weather History Date:

Sunday, November 6, 2011

  Actual Average (KHOT) Record (KHOT)
Temperature  
Mean Temperature 64 °F -  
Max Temperature 72 °F 64 °F 82 °F (1978)
Min Temperature 57 °F 40 °F 23 °F (1959)
Degree Days  
Heating Degree Days 1    
Growing Degree Days 14 (Base 50)    
Moisture  
Dew Point 53 °F    
Average Humidity 72    
Maximum Humidity 83    
Minimum Humidity 61    
Precipitation  
Precipitation 0.00 in - - ()
Sea Level Pressure  
Sea Level Pressure 30.05 in    
Wind  
Wind Speed 5 mph (SE)    
Max Wind Speed 10 mph    
Max Gust Speed 18 mph    
Visibility 10 miles    
Events      
Averages and records for this station are not official NWS values.
T = Trace of Precipitation, MM = Missing Value Source: NWS Daily Summary

Daily Weather History Graph

Daily Weather History Graph

Search for Another Location

Airport:

Trip Planner

Search our weather history database for the weather conditions in past years. The results will help you decide how hot, cold, wet, or windy it might be!

Date:

Astronomy

Nov. 06, 2011 Rise Set
Actual Time 6:39 AM CST 5:16 PM CST
Civil Twilight 6:12 AM CST 5:42 PM CST
Nautical Twilight 5:42 AM CST 6:12 PM CST
Astronomical Twilight 5:13 AM CST 6:42 PM CST
Moon 2:53 PM CST (11/6) 2:54 AM CST (11/6)
Length of Visible Light 11h 29m
Length of Day
10h 37m
Waxing Gibbous, 86% of the Moon is Illuminated
Nov 6
Waxing Gibbous
Nov 10
Full
Nov 18
Last Quarter
Nov 25
New
Dec 2
First Quarter

Hourly Weather History & Observations

Time (CST) Temp. Dew Point Humidity Pressure Visibility Wind Dir Wind Speed Gust Speed Precip Events Conditions
12:53 AM 57.9 °F 46.0 °F 65% 30.00 in 10.0 mi Variable 3.5 mph - N/A   Clear
1:53 AM 60.1 °F 46.9 °F 62% 30.00 in 10.0 mi SSE 4.6 mph - N/A   Overcast
1:53 AM 60.1 °F 48.0 °F 64% 30.00 in 10.0 mi SE 6.9 mph - N/A   Overcast
2:53 AM 60.1 °F 48.9 °F 67% 30.01 in 10.0 mi Variable 3.5 mph - N/A   Overcast
3:53 AM 59.0 °F 50.0 °F 72% 30.01 in 10.0 mi Variable 6.9 mph - N/A   Overcast
4:13 AM 59.0 °F 50.0 °F 72% 30.03 in 10.0 mi Variable 3.5 mph - N/A   Overcast
4:53 AM 59.0 °F 51.1 °F 75% 30.04 in 10.0 mi Variable 5.8 mph - N/A   Overcast
6:45 AM 57.2 °F 51.8 °F 82% 30.07 in 10.0 mi Variable 3.5 mph - N/A   Overcast
6:53 AM 57.0 °F 51.1 °F 81% 30.06 in 9.0 mi SSE 8.1 mph - N/A   Overcast
7:53 AM 57.9 °F 52.0 °F 81% 30.08 in 10.0 mi Variable 4.6 mph - N/A   Overcast
8:53 AM 59.0 °F 52.0 °F 78% 30.09 in 10.0 mi Variable 6.9 mph 18.4 mph N/A   Overcast
9:53 AM 61.0 °F 52.0 °F 72% 30.09 in 10.0 mi Variable 5.8 mph - N/A   Overcast
10:18 AM 60.8 °F 51.8 °F 72% 30.10 in 10.0 mi Variable 4.6 mph - N/A   Overcast
10:53 AM 63.0 °F 53.1 °F 70% 30.09 in 10.0 mi Calm Calm - N/A   Overcast
11:53 AM 66.0 °F 55.0 °F 68% 30.06 in 10.0 mi Variable 3.5 mph - N/A   Overcast
12:05 PM 66.2 °F 55.4 °F 68% 30.07 in 10.0 mi Calm Calm - N/A   Overcast
12:12 PM 66.2 °F 55.4 °F 68% 30.06 in 10.0 mi Variable 5.8 mph - N/A   Overcast
12:53 PM 66.9 °F 55.0 °F 66% 30.03 in 10.0 mi Variable 3.5 mph - N/A   Overcast
1:53 PM 71.1 °F 57.0 °F 61% 30.00 in 10.0 mi South 10.4 mph 16.1 mph N/A   Mostly Cloudy
2:53 PM 71.1 °F 57.0 °F 61% 30.01 in 10.0 mi Variable 5.8 mph - N/A   Clear
3:53 PM 70.0 °F 57.9 °F 65% 30.01 in 10.0 mi SE 9.2 mph - N/A   Clear
4:00 PM - - N/A% - - North - - N/A   Unknown
4:53 PM 66.9 °F 57.0 °F 70% 30.03 in 10.0 mi ESE 8.1 mph - N/A   Partly Cloudy
5:53 PM 64.0 °F 55.9 °F 75% 30.06 in 10.0 mi East 3.5 mph - N/A   Partly Cloudy
6:53 PM 62.1 °F 55.0 °F 78% 30.07 in 10.0 mi Variable 4.6 mph - N/A   Clear
7:53 PM 61.0 °F 55.0 °F 81% 30.07 in 10.0 mi ENE 3.5 mph - N/A   Clear
8:53 PM 59.0 °F 54.0 °F 83% 30.09 in 10.0 mi Calm Calm - N/A   Scattered Clouds
9:53 PM 60.1 °F 54.0 °F 80% 30.10 in 10.0 mi Calm Calm - N/A   Clear
10:53 PM 61.0 °F 55.0 °F 81% 30.09 in 10.0 mi ESE 4.6 mph - N/A   Overcast